| time (UTC) | temp F | wind direction | speed knots | gust knots | rain 1hr in | rain 24hr in | rain mn in | humidity % | barometer mb |
| 20260506150038 | 54 | 345 | 0.0 | 0.9 | 0.00 | 0.00 | 0.00 | 87 | 1021.4 |
| 20260506145819 | 55 | 345 | 0.0 | 0.9 | 0.00 | 0.00 | 0.00 | 88 | 1021.6 |
| 20260506145328 | 54 | 345 | 0.0 | 0.9 | 0.00 | 0.00 | 0.00 | 88 | 1021.5 |
| 20260506144809 | 54 | 345 | 0.0 | 0.9 | 0.00 | 0.00 | 0.00 | 88 | 1021.5 |
| 20260506144546 | 53 | 345 | 0.0 | 0.0 | 0.00 | 0.00 | 0.00 | 88 | 1021.4 |
| 20260506144311 | 54 | 345 | 0.0 | 0.0 | 0.00 | 0.00 | 0.00 | 88 | 1021.5 |
| 20260506143841 | 53 | 345 | 0.0 | 0.0 | 0.00 | 0.00 | 0.00 | 89 | 1021.5 |
| 20260506143321 | 53 | 345 | 0.0 | 0.0 | 0.00 | 0.00 | 0.00 | 88 | 1021.5 |
| 20260506143043 | 52 | 345 | 0.0 | 0.9 | 0.00 | 0.00 | 0.00 | 88 | 1021.3 |
| 20260506142831 | 53 | 345 | 0.0 | 0.9 | 0.00 | 0.00 | 0.00 | 88 | 1021.4 |
| 20260506142312 | 53 | 345 | 0.0 | 0.9 | 0.00 | 0.00 | 0.00 | 88 | 1021.3 |
| 20260506141814 | 52 | 345 | 0.0 | 0.0 | 0.00 | 0.00 | 0.00 | 89 | 1021.3 |
| 20260506141540 | 52 | 345 | 0.0 | 0.0 | 0.00 | 0.00 | 0.00 | 89 | 1021.1 |
| 20260506141316 | 52 | 345 | 0.0 | 0.0 | 0.00 | 0.00 | 0.00 | 88 | 1021.2 |
| 20260506140825 | 52 | 345 | 0.0 | 0.0 | 0.00 | 0.00 | 0.00 | 88 | 1021.1 |
| 20260506140328 | 52 | 345 | 0.0 | 0.0 | 0.00 | 0.00 | 0.00 | 88 | 1021.1 |
| 20260506140059 | 51 | 345 | 0.0 | 0.0 | 0.00 | 0.00 | 0.00 | 88 | 1021.0 |
| 20260506135829 | 51 | 345 | 0.0 | 0.0 | 0.00 | 0.00 | 0.00 | 88 | 1021.0 |
| 20260506135310 | 51 | 345 | 0.0 | 0.0 | 0.00 | 0.00 | 0.00 | 88 | 1021.0 |
| 20260506134820 | 51 | 345 | 0.0 | 0.0 | 0.00 | 0.00 | 0.00 | 88 | 1021.0 |
| 20260506134556 | 50 | 345 | 0.0 | 0.0 | 0.00 | 0.00 | 0.00 | 88 | 1020.8 |
| 20260506134322 | 51 | 345 | 0.0 | 0.0 | 0.00 | 0.00 | 0.00 | 88 | 1020.8 |
| 20260506133814 | 51 | 345 | 0.0 | 0.0 | 0.00 | 0.00 | 0.00 | 88 | 1020.8 |
| 20260506133341 | 51 | 345 | 0.0 | 0.0 | 0.00 | 0.00 | 0.00 | 88 | 1020.7 |
| 20260506133052 | 50 | 345 | 0.0 | 0.0 | 0.00 | 0.00 | 0.00 | 88 | 1020.7 |
| 20260506132821 | 50 | 345 | 0.0 | 0.0 | 0.00 | 0.00 | 0.00 | 88 | 1020.8 |
| 20260506132330 | 50 | 345 | 0.0 | 0.0 | 0.00 | 0.00 | 0.00 | 87 | 1020.7 |
| 20260506131816 | 50 | 345 | 0.0 | 0.0 | 0.00 | 0.00 | 0.00 | 87 | 1020.7 |
| 20260506131601 | 50 | 345 | 0.0 | 0.0 | 0.00 | 0.00 | 0.00 | 87 | 1020.5 |
| 20260506131318 | 50 | 345 | 0.0 | 0.0 | 0.00 | 0.00 | 0.00 | 87 | 1020.7 |
| 20260506130820 | 50 | 345 | 0.0 | 0.0 | 0.00 | 0.00 | 0.00 | 87 | 1020.6 |
| 20260506130346 | 51 | 345 | 0.0 | 0.0 | 0.00 | 0.00 | 0.00 | 87 | 1020.5 |
| 20260506130058 | 50 | 345 | 0.0 | 0.0 | 0.00 | 0.00 | 0.00 | 87 | 1020.3 |
| 20260506125811 | 51 | 345 | 0.0 | 0.0 | 0.00 | 0.00 | 0.00 | 87 | 1020.5 |
| 20260506125313 | 51 | 345 | 0.0 | 0.0 | 0.00 | 0.00 | 0.00 | 87 | 1020.3 |
| 20260506124822 | 51 | 345 | 0.0 | 0.0 | 0.00 | 0.00 | 0.00 | 87 | 1020.2 |
| 20260506124554 | 51 | 345 | 0.0 | 0.0 | 0.00 | 0.00 | 0.00 | 87 | 1020.1 |
| 20260506124341 | 51 | 345 | 0.0 | 0.0 | 0.00 | 0.00 | 0.00 | 87 | 1020.3 |
| 20260506123812 | 51 | 345 | 0.0 | 0.0 | 0.00 | 0.00 | 0.00 | 87 | 1020.2 |
| 20260506123042 | 51 | 345 | 0.0 | 0.0 | 0.00 | 0.00 | 0.00 | 87 | 1020.3 |
| 20260506122816 | 51 | 345 | 0.0 | 0.0 | 0.00 | 0.00 | 0.00 | 87 | 1020.3 |
| 20260506122320 | 51 | 345 | 0.0 | 0.0 | 0.00 | 0.00 | 0.00 | 87 | 1020.3 |
| 20260506121822 | 51 | 345 | 0.0 | 0.0 | 0.00 | 0.00 | 0.00 | 87 | 1020.3 |
| 20260506121529 | 51 | 345 | 0.0 | 0.0 | 0.00 | 0.00 | 0.00 | 87 | 1020.2 |
| 20260506121331 | 51 | 345 | 0.0 | 0.0 | 0.00 | 0.00 | 0.00 | 87 | 1020.3 |
| 20260506120817 | 51 | 345 | 0.0 | 0.0 | 0.00 | 0.00 | 0.00 | 86 | 1020.2 |
| 20260506120319 | 52 | 345 | 0.0 | 0.0 | 0.00 | 0.00 | 0.00 | 86 | 1020.2 |
| 20260506120041 | 51 | 345 | 0.0 | 0.0 | 0.00 | 0.00 | 0.00 | 87 | 1020.0 |
| 20260506115821 | 52 | 345 | 0.0 | 0.0 | 0.00 | 0.00 | 0.00 | 86 | 1020.2 |
| 20260506115325 | 52 | 345 | 0.0 | 0.0 | 0.00 | 0.00 | 0.00 | 86 | 1020.2 |
| 20260506114811 | 52 | 345 | 0.0 | 0.0 | 0.00 | 0.00 | 0.00 | 86 | 1020.1 |
| 20260506114535 | 52 | 345 | 0.0 | 0.0 | 0.00 | 0.00 | 0.00 | 86 | 1019.9 |
| 20260506114320 | 52 | 345 | 0.0 | 0.9 | 0.00 | 0.00 | 0.00 | 87 | 1020.1 |
| 20260506113822 | 53 | 345 | 0.0 | 0.9 | 0.00 | 0.00 | 0.00 | 87 | 1019.9 |
| 20260506113321 | 53 | 345 | 0.0 | 0.9 | 0.00 | 0.00 | 0.00 | 87 | 1020.1 |
| 20260506113029 | 52 | 345 | 0.0 | 0.9 | 0.00 | 0.00 | 0.00 | 87 | 1019.9 |
| 20260506112830 | 53 | 345 | 0.0 | 0.9 | 0.00 | 0.00 | 0.00 | 87 | 1019.9 |
| 20260506112312 | 53 | 345 | 0.0 | 0.9 | 0.00 | 0.00 | 0.00 | 86 | 1019.9 |
| 20260506111814 | 53 | 345 | 0.0 | 0.9 | 0.00 | 0.00 | 0.00 | 87 | 1019.8 |
| 20260506111538 | 53 | 345 | 0.0 | 0.9 | 0.00 | 0.00 | 0.00 | 87 | 1019.7 |
| 20260506110836 | 53 | 322 | 0.0 | 1.7 | 0.00 | 0.00 | 0.00 | 86 | 1019.8 |
| 20260506110318 | 53 | 6 | 0.0 | 1.7 | 0.00 | 0.00 | 0.00 | 86 | 1019.7 |
| 20260506105841 | 53 | 342 | 0.0 | 0.9 | 0.00 | 0.00 | 0.00 | 86 | 1019.7 |
| 20260506105329 | 53 | 337 | 0.0 | 0.9 | 0.00 | 0.00 | 0.00 | 86 | 1019.5 |
| 20260506104810 | 53 | 338 | 0.0 | 0.9 | 0.00 | 0.00 | 0.00 | 86 | 1019.6 |
| 20260506104522 | 53 | 338 | 0.0 | 0.9 | 0.00 | 0.00 | 0.00 | 85 | 1019.4 |
| 20260506104319 | 53 | 338 | 0.0 | 0.0 | 0.00 | 0.00 | 0.00 | 85 | 1019.5 |
| 20260506103821 | 53 | 338 | 0.0 | 0.0 | 0.00 | 0.00 | 0.00 | 85 | 1019.5 |
| 20260506103328 | 53 | 347 | 0.0 | 0.0 | 0.00 | 0.00 | 0.00 | 85 | 1019.5 |
| 20260506103014 | 53 | 349 | 0.0 | 0.0 | 0.00 | 0.00 | 0.00 | 85 | 1019.2 |
| 20260506102810 | 53 | 349 | 0.0 | 0.0 | 0.00 | 0.00 | 0.00 | 85 | 1019.3 |
| 20260506102312 | 53 | 349 | 0.0 | 0.0 | 0.00 | 0.00 | 0.00 | 85 | 1019.3 |
| 20260506101819 | 53 | 349 | 0.0 | 0.0 | 0.00 | 0.00 | 0.00 | 85 | 1019.4 |
| 20260506101603 | 53 | 349 | 0.0 | 0.0 | 0.00 | 0.00 | 0.00 | 85 | 1019.1 |
| 20260506101340 | 53 | 349 | 0.0 | 0.0 | 0.00 | 0.00 | 0.00 | 85 | 1019.3 |
| 20260506100915 | 53 | 349 | 0.0 | 0.0 | 0.00 | 0.00 | 0.00 | 85 | 1019.2 |
| 20260506100312 | 53 | 349 | 0.0 | 0.0 | 0.00 | 0.00 | 0.00 | 84 | 1019.2 |
| 20260506100059 | 53 | 349 | 0.0 | 0.0 | 0.00 | 0.00 | 0.00 | 84 | 1019.2 |
| 20260506095834 | 53 | 349 | 0.0 | 0.0 | 0.00 | 0.00 | 0.00 | 84 | 1019.3 |
| 20260506095321 | 53 | 349 | 0.0 | 0.0 | 0.00 | 0.00 | 0.00 | 84 | 1019.3 |
| 20260506094824 | 53 | 349 | 0.0 | 0.0 | 0.00 | 0.00 | 0.00 | 84 | 1019.3 |
| 20260506094554 | 53 | 349 | 0.0 | 0.0 | 0.00 | 0.00 | 0.00 | 84 | 1019.2 |
| 20260506094326 | 53 | 349 | 0.0 | 0.0 | 0.00 | 0.00 | 0.00 | 83 | 1019.3 |
| 20260506093835 | 53 | 349 | 0.0 | 0.0 | 0.00 | 0.00 | 0.00 | 83 | 1019.4 |
| 20260506093317 | 54 | 349 | 0.0 | 0.0 | 0.00 | 0.00 | 0.00 | 83 | 1019.3 |
| 20260506093103 | 53 | 348 | 0.0 | 0.0 | 0.00 | 0.00 | 0.00 | 83 | 1019.1 |
| 20260506092819 | 54 | 349 | 0.0 | 0.0 | 0.00 | 0.00 | 0.00 | 83 | 1019.2 |
| 20260506092327 | 54 | 349 | 0.0 | 0.0 | 0.00 | 0.00 | 0.00 | 83 | 1019.2 |
| 20260506091828 | 54 | 349 | 0.0 | 0.0 | 0.00 | 0.00 | 0.00 | 83 | 1019.2 |
| 20260506091541 | 54 | 349 | 0.0 | 0.0 | 0.00 | 0.00 | 0.00 | 83 | 1019.2 |
| 20260506091311 | 54 | 349 | 0.0 | 0.0 | 0.00 | 0.00 | 0.00 | 83 | 1019.3 |
| 20260506090820 | 54 | 349 | 0.0 | 0.0 | 0.00 | 0.00 | 0.00 | 82 | 1019.3 |
| 20260506090321 | 55 | 349 | 0.0 | 0.0 | 0.00 | 0.00 | 0.00 | 83 | 1019.4 |
| 20260506090049 | 54 | 349 | 0.0 | 0.0 | 0.00 | 0.00 | 0.00 | 82 | 1019.3 |
| 20260506085851 | 55 | 349 | 0.0 | 0.0 | 0.00 | 0.00 | 0.00 | 82 | 1019.3 |
| 20260506085339 | 55 | 349 | 0.0 | 0.0 | 0.00 | 0.00 | 0.00 | 83 | 1019.2 |
| 20260506084820 | 55 | 349 | 0.0 | 0.9 | 0.00 | 0.00 | 0.00 | 83 | 1019.3 |
| 20260506084531 | 55 | 349 | 0.0 | 0.9 | 0.00 | 0.00 | 0.00 | 83 | 1019.1 |
| 20260506084335 | 55 | 349 | 0.0 | 0.9 | 0.00 | 0.00 | 0.00 | 82 | 1019.2 |
| 20260506083817 | 55 | 350 | 0.0 | 0.0 | 0.00 | 0.00 | 0.00 | 82 | 1019.1 |
| 20260506083327 | 55 | 350 | 0.0 | 0.0 | 0.00 | 0.00 | 0.00 | 82 | 1019.1 |
| 20260506083044 | 55 | 350 | 0.0 | 0.0 | 0.00 | 0.00 | 0.00 | 82 | 1018.9 |
| 20260506082856 | 56 | 350 | 0.0 | 0.0 | 0.00 | 0.00 | 0.00 | 82 | 1019.1 |
| 20260506082325 | 56 | 350 | 0.0 | 0.0 | 0.00 | 0.00 | 0.00 | 81 | 1018.9 |
| 20260506081827 | 56 | 350 | 0.0 | 0.0 | 0.00 | 0.00 | 0.00 | 81 | 1019.1 |
| 20260506081539 | 56 | 350 | 0.0 | 0.0 | 0.00 | 0.00 | 0.00 | 81 | 1018.9 |
| 20260506081335 | 56 | 350 | 0.0 | 0.9 | 0.00 | 0.00 | 0.00 | 81 | 1019.1 |
| 20260506080837 | 56 | 350 | 0.0 | 0.9 | 0.00 | 0.00 | 0.00 | 81 | 1019.1 |
| 20260506080317 | 56 | 350 | 0.0 | 0.0 | 0.00 | 0.00 | 0.00 | 81 | 1019.0 |
| 20260506073346 | 56 | 352 | 0.0 | 0.9 | 0.00 | 0.00 | 0.00 | 81 | 1018.9 |
| 20260506073104 | 56 | 353 | 0.0 | 0.9 | 0.00 | 0.00 | 0.00 | 81 | 1018.7 |
| 20260506072827 | 56 | 350 | 0.0 | 0.9 | 0.00 | 0.00 | 0.00 | 81 | 1018.9 |
| 20260506072309 | 56 | 350 | 0.0 | 0.0 | 0.00 | 0.00 | 0.00 | 80 | 1018.9 |
| 20260506071818 | 56 | 350 | 0.0 | 0.0 | 0.00 | 0.00 | 0.00 | 80 | 1018.8 |
| 20260506071503 | 56 | 350 | 0.0 | 0.0 | 0.00 | 0.00 | 0.00 | 80 | 1018.7 |
| 20260506071320 | 56 | 350 | 0.0 | 0.0 | 0.00 | 0.00 | 0.00 | 80 | 1018.8 |
| 20260506070849 | 57 | 349 | 0.0 | 0.0 | 0.00 | 0.00 | 0.00 | 80 | 1018.8 |
| 20260506070310 | 57 | 349 | 0.0 | 0.0 | 0.00 | 0.00 | 0.00 | 80 | 1018.6 |
| 20260506062324 | 58 | 12 | 0.0 | 1.7 | 0.00 | 0.00 | 0.00 | 78 | 1018.3 |
| 20260506061826 | 59 | 13 | 0.0 | 1.7 | 0.00 | 0.00 | 0.00 | 78 | 1018.3 |
| 20260506061553 | 58 | 18 | 0.0 | 0.9 | 0.00 | 0.00 | 0.00 | 77 | 1018.1 |
| 20260506061356 | 59 | 14 | 0.0 | 0.9 | 0.00 | 0.00 | 0.00 | 77 | 1018.2 |
| 20260506060817 | 59 | 316 | 0.0 | 0.9 | 0.00 | 0.00 | 0.00 | 77 | 1018.2 |
| 20260506060326 | 59 | 13 | 0.0 | 1.7 | 0.00 | 0.00 | 0.00 | 76 | 1018.2 |
| 20260506051317 | 60 | 338 | 0.0 | 0.9 | 0.00 | 0.00 | 0.00 | 73 | 1017.7 |
| 20260506050819 | 60 | 330 | 0.0 | 0.9 | 0.00 | 0.00 | 0.00 | 73 | 1017.6 |
| 20260506050322 | 60 | 330 | 0.0 | 0.9 | 0.00 | 0.00 | 0.00 | 73 | 1017.7 |
| 20260506044812 | 61 | 330 | 0.0 | 0.0 | 0.00 | 0.00 | 0.00 | 71 | 1017.5 |
| 20260506044530 | 60 | 330 | 0.0 | 0.0 | 0.00 | 0.00 | 0.00 | 71 | 1017.3 |
| 20260506044314 | 61 | 330 | 0.0 | 0.0 | 0.00 | 0.00 | 0.00 | 71 | 1017.5 |
| 20260506043823 | 61 | 330 | 0.0 | 0.0 | 0.00 | 0.00 | 0.00 | 71 | 1017.3 |
| 20260506043325 | 61 | 330 | 0.0 | 0.0 | 0.00 | 0.00 | 0.00 | 70 | 1017.3 |
| 20260506043037 | 61 | 330 | 0.0 | 0.0 | 0.00 | 0.00 | 0.00 | 70 | 1017.1 |
| 20260506042834 | 61 | 330 | 0.0 | 0.0 | 0.00 | 0.00 | 0.00 | 70 | 1017.3 |
| 20260506042343 | 62 | 330 | 0.0 | 0.0 | 0.00 | 0.00 | 0.00 | 69 | 1017.2 |
| 20260506041811 | 62 | 330 | 0.0 | 0.0 | 0.00 | 0.00 | 0.00 | 69 | 1017.1 |
| 20260506041522 | 61 | 330 | 0.0 | 0.0 | 0.00 | 0.00 | 0.00 | 68 | 1016.9 |
| 20260506041320 | 62 | 330 | 0.0 | 0.0 | 0.00 | 0.00 | 0.00 | 68 | 1017.1 |
| 20260506040822 | 62 | 330 | 0.0 | 0.0 | 0.00 | 0.00 | 0.00 | 68 | 1017.1 |
| 20260506040331 | 63 | 330 | 0.0 | 0.0 | 0.00 | 0.00 | 0.00 | 67 | 1017.1 |
| 20260506040016 | 62 | 330 | 0.0 | 0.0 | 0.00 | 0.00 | 0.00 | 67 | 1016.8 |
| 20260506035854 | 63 | 330 | 0.0 | 0.0 | 0.00 | 0.00 | 0.00 | 67 | 1017.0 |
| 20260506035339 | 63 | 330 | 0.0 | 0.0 | 0.00 | 0.00 | 0.00 | 66 | 1017.0 |
| 20260506034820 | 63 | 330 | 0.0 | 0.0 | 0.00 | 0.00 | 0.00 | 66 | 1016.9 |
| 20260506034523 | 63 | 330 | 0.0 | 0.9 | 0.00 | 0.00 | 0.00 | 66 | 1016.7 |
| 20260506034330 | 63 | 330 | 0.0 | 0.9 | 0.00 | 0.00 | 0.00 | 66 | 1016.8 |
| 20260506033314 | 64 | 330 | 0.0 | 0.0 | 0.00 | 0.00 | 0.00 | 65 | 1016.7 |
| 20260506033013 | 63 | 330 | 0.0 | 0.0 | 0.00 | 0.00 | 0.00 | 65 | 1016.5 |
| 20260506032823 | 64 | 330 | 0.0 | 0.0 | 0.00 | 0.00 | 0.00 | 65 | 1016.6 |
| 20260506032332 | 64 | 330 | 0.0 | 0.0 | 0.00 | 0.00 | 0.00 | 64 | 1016.5 |
| 20260506031820 | 65 | 330 | 0.0 | 0.0 | 0.00 | 0.00 | 0.00 | 64 | 1016.5 |
| 20260506031512 | 65 | 330 | 0.0 | 0.9 | 0.00 | 0.00 | 0.00 | 63 | 1016.3 |
| 20260506031322 | 65 | 330 | 0.0 | 0.9 | 0.00 | 0.00 | 0.00 | 63 | 1016.4 |
| 20260506030824 | 66 | 330 | 0.0 | 1.7 | 0.00 | 0.00 | 0.00 | 63 | 1016.3 |
| 20260506030333 | 66 | 6 | 0.9 | 2.6 | 0.00 | 0.00 | 0.00 | 63 | 1016.2 |
| 20260506030056 | 66 | 347 | 0.9 | 2.6 | 0.00 | 0.00 | 0.00 | 62 | 1016.1 |
| 20260506025814 | 66 | 354 | 0.0 | 1.7 | 0.00 | 0.00 | 0.00 | 62 | 1016.2 |
| 20260506025316 | 67 | 352 | 0.0 | 2.6 | 0.00 | 0.00 | 0.00 | 61 | 1016.1 |
| 20260506024845 | 67 | 329 | 0.9 | 2.6 | 0.00 | 0.00 | 0.00 | 61 | 1016.1 |
| 20260506024543 | 67 | 289 | 0.0 | 2.6 | 0.00 | 0.00 | 0.00 | 60 | 1015.8 |
| 20260506024326 | 68 | 357 | 0.9 | 1.7 | 0.00 | 0.00 | 0.00 | 60 | 1016.0 |
| 20260506023835 | 68 | 350 | 0.9 | 1.7 | 0.00 | 0.00 | 0.00 | 59 | 1016.0 |
| 20260506023317 | 68 | 303 | 0.0 | 2.6 | 0.00 | 0.00 | 0.00 | 58 | 1015.9 |
| 20260506023051 | 68 | 349 | 0.0 | 2.6 | 0.00 | 0.00 | 0.00 | 58 | 1015.6 |
| 20260506022819 | 69 | 336 | 0.9 | 4.3 | 0.00 | 0.00 | 0.00 | 58 | 1015.9 |
| 20260506022329 | 69 | 340 | 0.9 | 4.3 | 0.00 | 0.00 | 0.00 | 57 | 1015.8 |
| 20260506021810 | 69 | 354 | 0.9 | 5.2 | 0.00 | 0.00 | 0.00 | 56 | 1015.7 |
| 20260506021559 | 69 | 6 | 0.9 | 5.2 | 0.00 | 0.00 | 0.00 | 56 | 1015.5 |
| 20260506021312 | 70 | 6 | 0.9 | 6.1 | 0.00 | 0.00 | 0.00 | 56 | 1015.7 |
| 20260506020841 | 71 | 298 | 1.7 | 6.1 | 0.00 | 0.00 | 0.00 | 55 | 1015.7 |
| 20260506020309 | 71 | 3 | 0.9 | 5.2 | 0.00 | 0.00 | 0.00 | 55 | 1015.5 |
| 20260506020052 | 71 | 353 | 0.9 | 6.1 | 0.00 | 0.00 | 0.00 | 54 | 1015.4 |
| 20260506015811 | 71 | 326 | 2.6 | 6.1 | 0.00 | 0.00 | 0.00 | 54 | 1015.6 |
| 20260506015313 | 72 | 321 | 2.6 | 6.1 | 0.00 | 0.00 | 0.00 | 53 | 1015.6 |
| 20260506014822 | 72 | 222 | 0.9 | 5.2 | 0.00 | 0.00 | 0.00 | 54 | 1015.5 |
| 20260506014600 | 72 | 329 | 0.9 | 5.2 | 0.00 | 0.00 | 0.00 | 54 | 1015.2 |
| 20260506014324 | 72 | 30 | 1.7 | 5.2 | 0.00 | 0.00 | 0.00 | 53 | 1015.4 |
| 20260506013826 | 72 | 343 | 1.7 | 6.1 | 0.00 | 0.00 | 0.00 | 53 | 1015.5 |
| 20260506013335 | 73 | 34 | 3.5 | 5.2 | 0.00 | 0.00 | 0.00 | 52 | 1015.3 |
| 20260506013003 | 72 | 356 | 0.0 | 5.2 | 0.00 | 0.00 | 0.00 | 53 | 1015.1 |
| 20260506012814 | 73 | 5 | 0.9 | 5.2 | 0.00 | 0.00 | 0.00 | 53 | 1015.3 |
| 20260506012343 | 73 | 18 | 1.7 | 5.2 | 0.00 | 0.00 | 0.00 | 52 | 1015.3 |
| 20260506011823 | 72 | 20 | 0.9 | 6.1 | 0.00 | 0.00 | 0.00 | 53 | 1015.3 |
| 20260506011534 | 71 | 37 | 0.9 | 6.1 | 0.00 | 0.00 | 0.00 | 54 | 1015.1 |
| 20260506011332 | 72 | 30 | 1.7 | 6.1 | 0.00 | 0.00 | 0.00 | 53 | 1015.3 |
| 20260506010814 | 72 | 349 | 1.7 | 5.2 | 0.00 | 0.00 | 0.00 | 53 | 1015.3 |
| 20260506010336 | 71 | 302 | 0.9 | 5.2 | 0.00 | 0.00 | 0.00 | 53 | 1015.2 |
| 20260506010024 | 70 | 357 | 0.9 | 5.2 | 0.00 | 0.00 | 0.00 | 54 | 1015.1 |
| 20260506005824 | 71 | 356 | 0.9 | 3.5 | 0.00 | 0.00 | 0.00 | 53 | 1015.2 |
| 20260506005326 | 71 | 342 | 0.0 | 4.3 | 0.00 | 0.00 | 0.00 | 53 | 1015.3 |
| 20260506004828 | 71 | 54 | 1.7 | 4.3 | 0.00 | 0.00 | 0.00 | 53 | 1015.2 |
| 20260506004536 | 70 | 344 | 0.0 | 3.5 | 0.00 | 0.00 | 0.00 | 54 | 1015.0 |
| 20260506004310 | 71 | 342 | 0.0 | 3.5 | 0.00 | 0.00 | 0.00 | 54 | 1015.2 |
| 20260506003819 | 71 | 335 | 0.9 | 3.5 | 0.00 | 0.00 | 0.00 | 54 | 1015.2 |
| 20260506003321 | 71 | 354 | 0.9 | 3.5 | 0.00 | 0.00 | 0.00 | 53 | 1015.1 |
| 20260506003034 | 70 | 319 | 0.9 | 3.5 | 0.00 | 0.00 | 0.00 | 53 | 1015.1 |
| 20260506002830 | 71 | 13 | 0.9 | 2.6 | 0.00 | 0.00 | 0.00 | 53 | 1015.2 |
| 20260506002312 | 71 | 331 | 0.9 | 3.5 | 0.00 | 0.00 | 0.00 | 53 | 1015.2 |
| 20260506001821 | 71 | 326 | 0.9 | 4.3 | 0.00 | 0.00 | 0.00 | 53 | 1015.2 |
| 20260506001608 | 71 | 352 | 0.9 | 5.2 | 0.00 | 0.00 | 0.00 | 53 | 1015.0 |
| 20260506001350 | 71 | 352 | 1.7 | 5.2 | 0.00 | 0.00 | 0.00 | 52 | 1015.1 |
| 20260506000812 | 72 | 323 | 0.9 | 4.3 | 0.00 | 0.00 | 0.00 | 51 | 1015.2 |
| 20260506000313 | 73 | 295 | 0.9 | 4.3 | 0.00 | 0.00 | 0.00 | 51 | 1015.2 |
| 20260506000044 | 73 | 326 | 0.0 | 4.3 | 0.00 | 0.00 | 0.00 | 50 | 1014.9 |
| 20260505235822 | 74 | 13 | 0.9 | 4.3 | 0.00 | 0.00 | 0.00 | 49 | 1015.1 |
| 20260505235344 | 75 | 311 | 0.9 | 4.3 | 0.00 | 0.00 | 0.00 | 48 | 1015.2 |
| 20260505234810 | 76 | 15 | 1.7 | 4.3 | 0.00 | 0.00 | 0.00 | 48 | 1015.2 |
| 20260505234549 | 76 | 28 | 0.9 | 4.3 | 0.00 | 0.00 | 0.00 | 48 | 1015.1 |
| 20260505234312 | 76 | 20 | 0.9 | 2.6 | 0.00 | 0.00 | 0.00 | 49 | 1015.2 |
| 20260505233821 | 75 | 324 | 0.9 | 3.5 | 0.00 | 0.00 | 0.00 | 50 | 1015.3 |
| 20260505233330 | 74 | 41 | 0.0 | 6.1 | 0.00 | 0.00 | 0.00 | 53 | 1015.3 |
| 20260505233010 | 73 | 300 | 0.9 | 7.0 | 0.00 | 0.00 | 0.00 | 52 | 1015.3 |
| 20260505232812 | 73 | 359 | 0.9 | 7.0 | 0.00 | 0.00 | 0.00 | 52 | 1015.4 |
| 20260505232313 | 73 | 302 | 2.6 | 7.0 | 0.00 | 0.00 | 0.00 | 52 | 1015.5 |
| 20260505231816 | 73 | 323 | 1.7 | 5.2 | 0.00 | 0.00 | 0.00 | 52 | 1015.6 |
| 20260505231519 | 73 | 324 | 0.0 | 6.1 | 0.00 | 0.00 | 0.00 | 52 | 1015.5 |
| 20260505231324 | 74 | 325 | 1.7 | 6.1 | 0.00 | 0.00 | 0.00 | 52 | 1015.7 |
| 20260505230826 | 74 | 346 | 2.6 | 6.1 | 0.00 | 0.00 | 0.00 | 51 | 1015.6 |
| 20260505230328 | 74 | 349 | 0.0 | 4.3 | 0.00 | 0.00 | 0.00 | 53 | 1015.6 |
| 20260505230033 | 73 | 346 | 0.0 | 5.2 | 0.00 | 0.00 | 0.00 | 52 | 1015.5 |
| 20260505225810 | 74 | 334 | 1.7 | 5.2 | 0.00 | 0.00 | 0.00 | 52 | 1015.6 |
| 20260505225339 | 74 | 7 | 1.7 | 5.2 | 0.00 | 0.00 | 0.00 | 53 | 1015.6 |
| 20260505224827 | 73 | 323 | 0.9 | 3.5 | 0.00 | 0.00 | 0.00 | 53 | 1015.6 |
| 20260505224602 | 72 | 254 | 0.0 | 3.5 | 0.00 | 0.00 | 0.00 | 54 | 1015.5 |
| 20260505224315 | 73 | 355 | 0.0 | 3.5 | 0.00 | 0.00 | 0.00 | 55 | 1015.7 |
| 20260505223823 | 72 | 6 | 0.0 | 3.5 | 0.00 | 0.00 | 0.00 | 55 | 1015.6 |
| 20260505223325 | 72 | 342 | 0.0 | 3.5 | 0.00 | 0.00 | 0.00 | 55 | 1015.8 |
| 20260505223056 | 72 | 122 | 0.9 | 3.5 | 0.00 | 0.00 | 0.00 | 54 | 1015.6 |
| 20260505222827 | 72 | 228 | 0.9 | 2.6 | 0.00 | 0.00 | 0.00 | 54 | 1015.8 |
| 20260505222336 | 73 | 344 | 0.9 | 2.6 | 0.00 | 0.00 | 0.00 | 54 | 1015.9 |
| 20260505221817 | 73 | 37 | 0.0 | 4.3 | 0.00 | 0.00 | 0.00 | 55 | 1015.9 |
| 20260505221539 | 72 | 250 | 0.0 | 4.3 | 0.00 | 0.00 | 0.00 | 56 | 1015.8 |
| 20260505221319 | 72 | 250 | 0.0 | 5.2 | 0.00 | 0.00 | 0.00 | 56 | 1016.0 |
| 20260505220829 | 72 | 354 | 0.0 | 5.2 | 0.00 | 0.00 | 0.00 | 55 | 1016.0 |
| 20260505220310 | 72 | 302 | 0.9 | 5.2 | 0.00 | 0.00 | 0.00 | 54 | 1016.1 |
| 20260505220044 | 71 | 318 | 0.9 | 5.2 | 0.00 | 0.00 | 0.00 | 57 | 1016.1 |
| 20260505215819 | 72 | 48 | 1.7 | 5.2 | 0.00 | 0.00 | 0.00 | 56 | 1016.2 |
| 20260505215320 | 72 | 26 | 1.7 | 5.2 | 0.00 | 0.00 | 0.00 | 55 | 1016.2 |
| 20260505214850 | 72 | 310 | 0.9 | 2.6 | 0.00 | 0.00 | 0.00 | 57 | 1016.2 |
| 20260505214532 | 71 | 105 | 0.0 | 1.7 | 0.00 | 0.00 | 0.00 | 57 | 1016.2 |
| 20260505214317 | 71 | 106 | 0.0 | 1.7 | 0.00 | 0.00 | 0.00 | 57 | 1016.3 |
| 20260505213826 | 71 | 340 | 0.0 | 1.7 | 0.00 | 0.00 | 0.00 | 58 | 1016.3 |
| 20260505213335 | 71 | 57 | 0.0 | 3.5 | 0.00 | 0.00 | 0.00 | 58 | 1016.3 |
| 20260505213011 | 70 | 176 | 0.9 | 6.1 | 0.00 | 0.00 | 0.00 | 58 | 1016.3 |
| 20260505212817 | 70 | 212 | 0.9 | 6.1 | 0.00 | 0.00 | 0.00 | 58 | 1016.4 |
| 20260505212318 | 71 | 239 | 0.9 | 4.3 | 0.00 | 0.00 | 0.00 | 57 | 1016.6 |
| 20260505211834 | 71 | 27 | 0.9 | 4.3 | 0.00 | 0.00 | 0.00 | 58 | 1016.6 |
| 20260505211505 | 70 | 359 | 0.9 | 4.3 | 0.00 | 0.00 | 0.00 | 58 | 1016.4 |
| 20260505211316 | 71 | 16 | 0.0 | 2.6 | 0.00 | 0.00 | 0.00 | 60 | 1016.6 |
| 20260505210818 | 70 | 340 | 0.0 | 5.2 | 0.00 | 0.00 | 0.00 | 60 | 1016.7 |
| 20260505210348 | 69 | 332 | 0.9 | 5.2 | 0.00 | 0.00 | 0.00 | 61 | 1016.7 |
| 20260505210106 | 69 | 282 | 0.9 | 5.2 | 0.00 | 0.00 | 0.00 | 60 | 1016.5 |
| 20260505205809 | 69 | 221 | 0.9 | 3.5 | 0.00 | 0.00 | 0.00 | 61 | 1016.6 |
| 20260505205311 | 69 | 317 | 0.9 | 2.6 | 0.00 | 0.00 | 0.00 | 59 | 1016.7 |
| 20260505204841 | 68 | 272 | 0.0 | 3.5 | 0.00 | 0.00 | 0.00 | 60 | 1016.7 |
| 20260505204543 | 68 | 334 | 0.9 | 4.3 | 0.00 | 0.00 | 0.00 | 60 | 1016.6 |
| 20260505204349 | 68 | 195 | 0.9 | 4.3 | 0.00 | 0.00 | 0.00 | 60 | 1016.7 |
| 20260505203831 | 68 | 18 | 1.7 | 4.3 | 0.00 | 0.00 | 0.00 | 59 | 1016.7 |
| 20260505203312 | 67 | 27 | 0.0 | 4.3 | 0.00 | 0.00 | 0.00 | 63 | 1016.7 |
| 20260505203010 | 66 | 342 | 0.9 | 5.2 | 0.00 | 0.00 | 0.00 | 61 | 1016.6 |
| 20260505202821 | 67 | 330 | 0.9 | 5.2 | 0.00 | 0.00 | 0.00 | 61 | 1016.7 |
| 20260505202323 | 67 | 286 | 0.9 | 5.2 | 0.00 | 0.00 | 0.00 | 63 | 1016.7 |
| 20260505201833 | 67 | 36 | 1.7 | 4.3 | 0.00 | 0.00 | 0.00 | 62 | 1016.6 |
| 20260505201607 | 66 | 330 | 0.0 | 5.2 | 0.00 | 0.00 | 0.00 | 63 | 1016.6 |
| 20260505201313 | 66 | 360 | 0.9 | 6.1 | 0.00 | 0.00 | 0.00 | 64 | 1016.7 |
| 20260505200812 | 66 | 326 | 2.6 | 6.1 | 0.00 | 0.00 | 0.00 | 63 | 1016.7 |
| 20260505200321 | 66 | 303 | 2.6 | 6.1 | 0.00 | 0.00 | 0.00 | 64 | 1016.6 |
| 20260505200006 | 65 | 336 | 1.7 | 6.1 | 0.00 | 0.00 | 0.00 | 64 | 1016.6 |
| 20260505195823 | 65 | 19 | 1.7 | 6.1 | 0.00 | 0.00 | 0.00 | 65 | 1016.7 |
| 20260505195325 | 65 | 34 | 0.9 | 5.2 | 0.00 | 0.00 | 0.00 | 66 | 1016.7 |
| 20260505194834 | 65 | 59 | 0.9 | 6.1 | 0.00 | 0.00 | 0.00 | 65 | 1016.7 |
| 20260505194510 | 64 | 32 | 0.9 | 7.8 | 0.00 | 0.00 | 0.00 | 65 | 1016.6 |
| 20260505194315 | 65 | 21 | 1.7 | 7.8 | 0.00 | 0.00 | 0.00 | 67 | 1016.8 |
| 20260505193818 | 64 | 287 | 2.6 | 7.8 | 0.00 | 0.00 | 0.00 | 66 | 1016.8 |
| 20260505193320 | 64 | 338 | 1.7 | 6.1 | 0.00 | 0.00 | 0.00 | 68 | 1016.8 |
| 20260505193037 | 63 | 328 | 0.0 | 5.2 | 0.00 | 0.00 | 0.00 | 68 | 1016.7 |
| 20260505192835 | 63 | 339 | 0.0 | 6.1 | 0.00 | 0.00 | 0.00 | 68 | 1016.8 |
| 20260505192317 | 63 | 347 | 1.7 | 6.1 | 0.00 | 0.00 | 0.00 | 67 | 1016.8 |
| 20260505191819 | 63 | 37 | 1.7 | 4.3 | 0.00 | 0.00 | 0.00 | 68 | 1016.8 |
| 20260505191549 | 62 | 282 | 0.9 | 4.3 | 0.00 | 0.00 | 0.00 | 68 | 1016.8 |
| 20260505191336 | 63 | 17 | 1.7 | 6.1 | 0.00 | 0.00 | 0.00 | 68 | 1016.9 |
| 20260505190817 | 63 | 352 | 1.7 | 7.0 | 0.00 | 0.00 | 0.00 | 68 | 1016.9 |
| 20260505190318 | 63 | 316 | 1.7 | 7.0 | 0.00 | 0.00 | 0.00 | 68 | 1016.9 |
| 20260505190032 | 62 | 349 | 2.6 | 7.0 | 0.00 | 0.00 | 0.00 | 68 | 1016.8 |
| 20260505185847 | 63 | 22 | 2.6 | 7.0 | 0.00 | 0.00 | 0.00 | 68 | 1016.9 |
| 20260505185329 | 63 | 304 | 1.7 | 6.1 | 0.00 | 0.00 | 0.00 | 68 | 1016.9 |
| 20260505184811 | 62 | 18 | 1.7 | 6.1 | 0.00 | 0.00 | 0.00 | 69 | 1016.9 |
| 20260505184518 | 62 | 208 | 1.7 | 6.1 | 0.00 | 0.00 | 0.00 | 69 | 1016.7 |
| 20260505184320 | 62 | 354 | 2.6 | 6.1 | 0.00 | 0.00 | 0.00 | 69 | 1016.8 |
| 20260505183823 | 62 | 331 | 1.7 | 5.2 | 0.00 | 0.00 | 0.00 | 69 | 1016.8 |
| 20260505183325 | 62 | 312 | 0.9 | 5.2 | 0.00 | 0.00 | 0.00 | 70 | 1016.7 |
| 20260505183036 | 62 | 35 | 1.7 | 5.2 | 0.00 | 0.00 | 0.00 | 70 | 1016.7 |
| 20260505182835 | 62 | 331 | 2.6 | 5.2 | 0.00 | 0.00 | 0.00 | 69 | 1016.8 |
| 20260505182316 | 62 | 341 | 1.7 | 5.2 | 0.00 | 0.00 | 0.00 | 70 | 1016.8 |
| 20260505181818 | 62 | 7 | 2.6 | 5.2 | 0.00 | 0.00 | 0.00 | 70 | 1016.8 |
| 20260505181531 | 61 | 334 | 0.9 | 4.3 | 0.00 | 0.00 | 0.00 | 72 | 1016.6 |
| 20260505181328 | 61 | 312 | 0.9 | 4.3 | 0.00 | 0.00 | 0.00 | 72 | 1016.7 |
| 20260505180816 | 61 | 7 | 0.9 | 5.2 | 0.00 | 0.00 | 0.00 | 73 | 1016.7 |
| 20260505180318 | 60 | 349 | 0.9 | 6.1 | 0.00 | 0.00 | 0.00 | 73 | 1016.7 |
| 20260505180049 | 60 | 289 | 2.6 | 6.1 | 0.00 | 0.00 | 0.00 | 72 | 1016.5 |
| 20260505175826 | 60 | 38 | 1.7 | 8.7 | 0.00 | 0.00 | 0.00 | 72 | 1016.7 |
| 20260505175329 | 60 | 349 | 1.7 | 8.7 | 0.00 | 0.00 | 0.00 | 72 | 1016.6 |
| 20260505174810 | 60 | 346 | 1.7 | 4.3 | 0.00 | 0.00 | 0.00 | 72 | 1016.6 |
| 20260505174538 | 59 | 17 | 0.9 | 4.3 | 0.00 | 0.00 | 0.00 | 72 | 1016.6 |
| 20260505174319 | 60 | 356 | 1.7 | 5.2 | 0.00 | 0.00 | 0.00 | 72 | 1016.6 |
| 20260505173821 | 60 | 7 | 1.7 | 6.1 | 0.00 | 0.00 | 0.00 | 72 | 1016.6 |
| 20260505173351 | 60 | 30 | 2.6 | 6.1 | 0.00 | 0.00 | 0.00 | 72 | 1016.5 |
| 20260505173102 | 59 | 1 | 1.7 | 7.0 | 0.00 | 0.00 | 0.00 | 72 | 1016.4 |
| 20260505172833 | 60 | 70 | 2.6 | 7.0 | 0.00 | 0.00 | 0.00 | 72 | 1016.5 |
| 20260505172327 | 60 | 294 | 1.7 | 7.0 | 0.00 | 0.00 | 0.00 | 71 | 1016.4 |
| 20260505171850 | 60 | 18 | 0.9 | 5.2 | 0.00 | 0.00 | 0.00 | 72 | 1016.5 |
| 20260505171540 | 60 | 30 | 0.9 | 5.2 | 0.00 | 0.00 | 0.00 | 71 | 1016.3 |
| 20260505171338 | 60 | 10 | 1.7 | 6.1 | 0.00 | 0.00 | 0.00 | 71 | 1016.4 |
| 20260505170819 | 60 | 4 | 0.9 | 7.8 | 0.00 | 0.00 | 0.00 | 71 | 1016.4 |
| 20260505170321 | 60 | 350 | 2.6 | 8.7 | 0.00 | 0.00 | 0.00 | 71 | 1016.3 |
| 20260505170022 | 60 | 44 | 3.5 | 8.7 | 0.00 | 0.00 | 0.00 | 71 | 1016.2 |
| 20260505165830 | 60 | 32 | 4.3 | 8.7 | 0.00 | 0.00 | 0.00 | 72 | 1016.3 |
| 20260505165313 | 60 | 52 | 1.7 | 7.0 | 0.00 | 0.00 | 0.00 | 72 | 1016.4 |
| 20260505164815 | 60 | 44 | 2.6 | 7.0 | 0.00 | 0.00 | 0.00 | 73 | 1016.3 |
| 20260505164536 | 59 | 13 | 0.9 | 6.1 | 0.00 | 0.00 | 0.00 | 74 | 1016.2 |
| 20260505164405 | 59 | 349 | 1.7 | 7.0 | 0.00 | 0.00 | 0.00 | 73 | 1016.3 |
| 20260505163848 | 59 | 13 | 1.7 | 7.8 | 0.00 | 0.00 | 0.00 | 75 | 1016.3 |
| 20260505163357 | 59 | 32 | 2.6 | 6.1 | 0.00 | 0.00 | 0.00 | 75 | 1016.3 |
| 20260505163021 | 58 | 298 | 2.6 | 6.1 | 0.00 | 0.00 | 0.00 | 76 | 1016.2 |
| 20260505162825 | 59 | 40 | 2.6 | 5.2 | 0.00 | 0.00 | 0.00 | 77 | 1016.3 |
| 20260505162333 | 58 | 30 | 1.7 | 6.1 | 0.00 | 0.00 | 0.00 | 78 | 1016.2 |
| 20260505161815 | 58 | 23 | 1.7 | 6.1 | 0.00 | 0.00 | 0.00 | 79 | 1016.2 |
| 20260505161551 | 57 | 338 | 1.7 | 6.1 | 0.00 | 0.00 | 0.00 | 79 | 1016.1 |
| 20260505161317 | 58 | 355 | 1.7 | 6.1 | 0.00 | 0.00 | 0.00 | 80 | 1016.1 |
| 20260505160819 | 57 | 355 | 2.6 | 7.0 | 0.00 | 0.00 | 0.00 | 81 | 1016.0 |
| 20260505160328 | 57 | 344 | 2.6 | 7.0 | 0.00 | 0.00 | 0.00 | 81 | 1016.0 |
| 20260505153315 | 56 | 356 | 1.7 | 4.3 | 0.00 | 0.00 | 0.00 | 82 | 1015.9 |
| 20260505153107 | 56 | 13 | 1.7 | 6.1 | 0.00 | 0.00 | 0.00 | 82 | 1015.7 |
| 20260505152817 | 56 | 14 | 2.6 | 6.1 | 0.00 | 0.00 | 0.00 | 82 | 1015.9 |
| 20260505152319 | 56 | 335 | 1.7 | 6.1 | 0.00 | 0.00 | 0.00 | 82 | 1015.9 |
| 20260505151849 | 56 | 310 | 1.7 | 4.3 | 0.00 | 0.00 | 0.00 | 82 | 1015.8 |
| 20260505151542 | 56 | 5 | 0.9 | 4.3 | 0.00 | 0.00 | 0.00 | 82 | 1015.6 |
| 20260505151338 | 56 | 20 | 0.9 | 3.5 | 0.00 | 0.00 | 0.00 | 82 | 1015.7 |
| 20260505150839 | 56 | 331 | 0.9 | 5.2 | 0.00 | 0.00 | 0.00 | 83 | 1015.7 |
| 20260505150327 | 56 | 295 | 1.7 | 5.2 | 0.00 | 0.00 | 0.00 | 82 | 1015.7 |